Location: Hungerford
(51.4167°N, 1.5167°W)
Time: 12:33:36
(UTC+00:00)

Lacrosse 5 rocket - Pass Details

Date: 18 September 2020
Orbit: 460 x 636 km, 57.0° (Epoch: 25 October)

Event Time Altitude Azimuth Distance (km) Brightness Sun altitude
Rises 21:24:37 0° 289° (WNW) 2,819 5.9 -27.8°
Reaches altitude 10° 21:26:57 10° 296° (WNW) 1,944 5.0 -28.1°
Enters shadow 21:30:46 41° 353° (N) 897 2.6 -28.5°
